Location: Burland Observatory
(39.4088°N, 105.4217°W)
Time: 20:25:46
(UTC-06:00)

Tiangong 2 - Visible Passes

Search period start: 25 March 2019 00:00
Search period end: 04 April 2019 00:00
Orbit: 380 x 389 km, 42.8° (Epoch: 25 March)

Date Brightness Start Highest point End Pass type
(mag) Time Alt. Az. Time Alt. Az. Time Alt. Az.
28 Mar 3.4 20:16:16 10° SSE 20:16:24 10° SSE 20:16:24 10° SSE visible
29 Mar 2.4 20:50:48 10° SW 20:52:47 27° S 20:52:47 27° S visible
30 Mar 2.7 19:51:58 10° SSW 19:54:17 19° SE 19:56:34 10° E visible
30 Mar 3.2 21:27:37 10° WSW 21:28:57 23° WSW 21:28:57 23° WSW visible
31 Mar 1.1 20:28:09 10° SW 20:31:13 59° SSE 20:32:42 26° E visible
01 Apr 1.4 21:05:19 10° W 21:08:24 59° NNW 21:08:31 58° N visible
02 Apr 1.0 20:05:41 10° WSW 20:08:48 85° NNW 20:11:56 10° ENE visible
02 Apr 3.5 21:42:45 10° WNW 21:44:12 23° WNW 21:44:12 23° WNW visible
03 Apr 1.9 20:43:02 10° W 20:46:05 46° N 20:47:33 25° NE visible
